Location: Finkenbach
(49.5340°N, 8.9188°E)
Time: 04:31:03
(UTC+00:00)

ATLAS 2AS CENTAUR R/B - Pass Details

Date: 17 June 2025
Orbit: 1040 x 1170 km, 63.7° (Epoch: 12 July)

Event Time Altitude Azimuth Distance (km) Brightness Sun altitude
Exits shadow 21:12:29 12° 128° (SE) 2,856 4.4 -11.3°
Maximum altitude 21:15:04 14° 105° (ESE) 2,662 4.4 -11.5°
Drops below altitude 10° 21:18:31 10° 75° (ENE) 2,958 4.9 -11.8°
Sets 21:22:34 0° 53° (NE) 3,893 5.8 -12.1°
